Regional Weather Roundup
Issued by NWS Little Rock, AR

Home | Current Version | Previous Version | Graphics & Text | Print | Product List | Glossary Off
Versions: 1 2 3 4 5 6 7 8 9 10 11 12 13 14 15 16 17 18 19 20 21 22 23 24 25 26 27 28 29 30 31 32 33 34 35 36 37 38 39 40 41 42 43 44 45 46 47 48 49 50

000
ASUS44 KLZK 060005
RWRLZK

WEATHER ROUNDUP FOR ARKANSAS
NATIONAL WEATHER SERVICE LITTLE ROCK AR
700 PM CDT SUN JUL 05 2015

NOTE: "FAIR" INDICATES FEW OR NO CLOUDS BELOW 12,000 FEET WITH NO
SIGNIFICANT WEATHER AND/OR OBSTRUCTIONS TO VISIBILITY.

ARZ001-003-010-029-060100-
NORTHWEST ARKANSAS

CITY           SKY/WX    TMP DP  RH WIND       PRES   REMARKS
FAYETTEVILLE   MOSUNNY   76  67  73 S17       30.01R
6HR MIN TEMP:  76; 6HR MAX TEMP:  87;

FORT SMITH     LGT RAIN  74  66  76 NE17G29   29.98R
6HR MIN TEMP:  71; 6HR MAX TEMP:  91; 6HR PCP:  0.36;

HARRISON       CLOUDY    72  68  87 NW5       30.03F
6HR MIN TEMP:  68; 6HR MAX TEMP:  85;

BENTONVILLE    PTSUNNY   82  72  69 SE10      30.00R HX  87
6HR MIN TEMP:  82; 6HR MAX TEMP:  90;

ROGERS         PTSUNNY   79  72  79 SE8       30.01R
6HR MIN TEMP:  79; 6HR MAX TEMP:  89;

SILOAM SPGS    PTSUNNY   84  70  61 S24G31    29.97S THUNDER HX  88
6HR MIN TEMP:  84; 6HR MAX TEMP:  90;

HIGHFILL       PTSUNNY   86  74  67 S10       29.97S HX  94
6HR MIN TEMP:  85; 6HR MAX TEMP:  89;

SPRINGDALE     PTSUNNY   81  66  61 S18G28    30.02R
$$

ARZ004-005-016-060100-
NORTH CENTRAL ARKANSAS

CITY           SKY/WX    TMP DP  RH WIND       PRES   REMARKS
BATESVILLE     PTSUNNY   81  73  78 S8G16     30.02R HX  85
6HR MIN TEMP:  79; 6HR MAX TEMP:  86;

FLIPPIN          N/A     79  72  78 SW3       29.99F
6HR MIN TEMP:  79; 6HR MAX TEMP:  88; 6HR PCP:  0.01;

MTN HOME       PTSUNNY   78  73  84 CALM      30.01R
6HR MIN TEMP:  79; 6HR MAX TEMP:  86;

$$

ARZ040-041-060100-
WEST CENTRAL ARKANSAS

CITY           SKY/WX    TMP DP  RH WIND       PRES   REMARKS
MENA           CLOUDY    84  77  79 CALM      30.00S HX  94
MOUNT IDA      CLOUDY    82  75  79 SE7       29.99R HX  89
6HR MIN TEMP:  75; 6HR MAX TEMP:  88; 6HR PCP:  0.77;

$$

ARZ009-017-025-026-028-060100-
NORTHEAST ARKANSAS

CITY           SKY/WX    TMP DP  RH WIND       PRES   REMARKS
JONESBORO      SUNNY     81  73  76 S7        30.01S HX  86
6HR MIN TEMP:  81; 6HR MAX TEMP:  87;

NEWPORT        MOSUNNY   82  75  79 S16       30.03R HX  88
6HR MIN TEMP:  82; 6HR MAX TEMP:  86;

WALNUT RIDGE   SUNNY     82  72  69 S10       30.00R HX  87
6HR MIN TEMP:  81; 6HR MAX TEMP:  84;

BLYTHEVILLE    SUNNY     83  74  74 S9        30.01F HX  89
6HR MIN TEMP:  82; 6HR MAX TEMP:  86;

$$

ARZ022-023-033-042-044-060100-
CENTRAL ARKANSAS

CITY           SKY/WX    TMP DP  RH WIND       PRES   REMARKS
LITTLE ROCK    PTSUNNY   78  69  73 S7        30.02S
6HR MIN TEMP:  78; 6HR MAX TEMP:  86;

N LITTLE ROCK  PTSUNNY   78  72  82 SE9       30.02S
6HR MIN TEMP:  77; 6HR MAX TEMP:  85;

JACKSONVILLE   PTSUNNY   80  71  74 S8        30.02S
6HR MIN TEMP:  79; 6HR MAX TEMP:  86;

HOT SPRINGS    CLOUDY    78  72  81 SE7       30.02R
6HR MIN TEMP:  78; 6HR MAX TEMP:  89;

RUSSELLVILLE   CLOUDY    75  71  87 CALM      29.99F
6HR MIN TEMP:  74; 6HR MAX TEMP:  88; 6HR PCP:  0.06;

$$

ARZ036-060100-
EAST ARKANSAS

CITY           SKY/WX    TMP DP  RH WIND       PRES   REMARKS
WEST MEMPHIS   SUNNY     80  74  81 S9        30.04R HX  85
6HR MIN TEMP:  79; 6HR MAX TEMP:  82;

$$

ARZ050-053-066-070-073-060100-
SOUTHWEST ARKANSAS

CITY           SKY/WX    TMP DP  RH WIND       PRES   REMARKS
ARKADELPHIA    FAIR      77  76  96 CALM      30.03R
6HR MIN TEMP:  76; 6HR MAX TEMP:  92; 6HR PCP:  0.03;

CAMDEN         PTSUNNY   73  68  83 MISG      30.05R
TEXARKANA      CLOUDY    77  71  82 SE10G21   30.01R
6HR MIN TEMP:  77; 6HR MAX TEMP:  92;

EL DORADO      CLOUDY    72  68  87 SE12      30.08R
6HR MIN TEMP:  71; 6HR MAX TEMP:  89;

DE QUEEN       CLOUDY    90  75  61 S7        29.94S HX 100
6HR MIN TEMP:  84; 6HR MAX TEMP:  91;

$$

ARZ056-057-069-060100-
SOUTHEAST ARKANSAS

CITY           SKY/WX    TMP DP  RH WIND       PRES   REMARKS
PINE BLUFF     MOSUNNY   79  69  71 S7        30.05R
6HR MIN TEMP:  71; 6HR MAX TEMP:  81; 6HR PCP:  0.01;

STUTTGART      MOSUNNY   81  70  69 MISG      30.04R
6HR MIN TEMP:  75; 6HR MAX TEMP:  81;

MONTICELLO     PTSUNNY   76  70  82 S8        30.07R
6HR MIN TEMP:  69; 6HR MAX TEMP:  79;


$$




USA.gov is the U.S. government's official web portal to all federal, state and local government web resources and services.